Starlink 5928

operational
NORAD ID: 55958 Int'l Des: 2023-037 Owner: SPXS Country: US Constellation: starlink
LEOCIRCULAR

About Starlink 5928

Description loading...

Live Position

Loading 3D Globe...

Upcoming Passes

Altitude History

Altitude vs Time

uPlot chart will show altitude changes over time

Two-Line Element Set

1 55958U 23037AW 25303.77993380 .00000133 00000-0 18938-4 0 9996
2 55958 70.0002 232.0157 0002664 266.7328 93.3527 14.98334352145017
Epoch: Oct 30, 2025 • Age: 6 hours

Current Status

Altitude 579.9 km
Velocity 7.57 km/s
Sub-Earth Point -24.38°S, 167.14°E
Launch Date Mar 17, 2023
Age 2.6 years
Type internet

Technical Details

Classification Payload
Mass 305.00 kg
Dry Mass 290.00 kg
Total Mass 305.00 kg
Length 0.20 m
Diameter 2.80 m
Span 9.00 m
Shape Box + pan
Manufacturer SPXS
Bus Type Starlink
Phase Status In Orbit
Owner/State SPXS/US

Large Constellations

Loading constellations...